RH
100 100 100 100 100 100 100 100 100 99 100 100 100 98 100 99 98 100 99 100 100 100 100 99 100 100 100 100 100 100 98 97 92 79 80 77 73 71 68 76 72 70 73
100 100 100 100 100 100 100 100 100 100 100 100 100 96 100 99 100 98 99 99 99 99 100 100 100 99 99 100 100 100 100 100 96 95 81 80 85 79 69 72 77 78 81
98 99 100 100 98 98 100 100 100 100 100 100 100 100 100 100 100 97 92 94 98 99 100 100 100 99 98 99 98 100 100 100 99 100 89 82 93 88 84 82 82 83 82
99 99 99 100 99 98 98 99 98 99 100 99 100 100 100 100 100 100 94 91 91 96 96 99 100 100 100 100 99 100 100 99 100 100 99 98 97 94 85 93 99 100 99
98 100 100 99 98 98 97 98 98 100 100 100 98 100 100 100 100 100 100 100 100 100 99 99 98 99 94 99 100 100 100 100 100 100 99 97 94 100 97 97 96 100 99
90 93 99 98 100 96 96 96 96 98 100 100 98 100 100 100 100 100 100 100 100 100 100 100 100 99 100 87 94 95 99 99 100 99 98 98 98 100 89 97 98 99 97
96 89 93 93 96 99 95 97 98 99 97 97 100 100 99 99 100 100 100 100 100 100 100 100 100 100 100 100 86 92 97 99 100 99 100 100 100 99 99 100 98 90 91
87 87 84 92 92 97 95 96 98 97 98 100 100 100 100 96 98 99 100 98 100 100 100 100 100 100 100 100 100 100 97 93 95 100 99 100 100 99 100 100 99 99 97
80 90 85 82 87 91 98 99 96 99 99 100 100 100 100 100 96 95 98 98 97 93 95 98 96 100 99 98 100 100 100 98 85 88 90 92 98 100 100 98 93 100 100
54 80 82 80 77 74 73 89 91 85 94 95 100 91 93 97 93 94 97 98 95 94 95 93 90 90 94 97 100 100 99 100 100 86 81 80 84 88 94 100 100 100 99
58 54 75 78 78 72 69 67 75 81 81 85 86 96 89 99 93 91 93 99 99 100 100 98 87 92 90 93 97 100 100 100 100 99 99 98 97 91 88 96 100 100 100
54 55 57 70 72 82 76 79 81 85 88 88 87 88 90 88 93 88 92 98 90 94 100 95 85 90 90 94 96 96 96 100 100 100 100 100 100 100 99 92 98 100 100
56 61 60 60 67 72 78 74 83 87 92 92 88 87 87 88 88 84 77 98 92 85 93 92 86 94 95 76 95 95 91 100 100 98 99 100 100 99 99 100 89 97 98
65 66 69 67 68 73 82 80 81 88 92 94 92 84 82 88 90 84 82 90 91 79 88 71 71 77 83 91 83 92 100 100 100 100 100 100 97 94 100 100 100 96 95
64 75 75 72 73 74 77 86 86 94 94 94 88 81 86 84 81 77 80 82 85 79 90 85 85 89 97 99 99 97 100 100 100 100 100 100 100 100 98 99 98 100 99
61 81 88 81 68 78 78 76 72 80 92 96 95 88 78 71 76 75 81 78 81 82 90 99 98 91 96 100 100 99 98 100 100 100 100 100 100 100 100 97 98 100 100
78 70 80 85 72 75 74 75 78 70 68 76 88 91 81 70 73 76 85 79 81 83 98 98 98 98 94 94 100 100 100 100 100 100 100 100 100 99 99 97 98 98 96
80 67 72 80 75 76 76 66 73 75 76 76 85 86 82 73 73 74 86 77 86 93 94 99 100 100 100 100 100 100 100 100 100 100 100 100 99 100 97 98 97 97 97
78 73 68 76 75 75 77 63 76 78 78 77 83 80 80 72 86 85 94 81 68 92 98 93 99 100 96 85 100 100 100 100 100 100 100 100 100 98 97 98 97 96 96
79 76 71 72 72 79 69 62 87 76 81 84 80 86 85 74 87 86 96 94 80 73 94 95 84 100 91 75 99 100 100 98 91 93 97 99 96 100 98 97 97 97 97
81 75 72 73 74 79 70 75 89 70 83 81 80 78 81 89 91 80 95 99 95 78 78 92 85 95 88 80 82 86 90 86 77 90 98 98 97 99 100 97 96 96 97
80 77 71 74 72 78 69 84 78 71 85 84 84 80 80 90 94 90 89 100 98 90 81 87 94 97 89 78 81 91 77 66 67 81 96 98 99 100 98 99 96 96 96
73 81 74 77 78 77 76 83 76 82 78 78 82 86 89 76 88 95 89 96 93 99 97 79 70 100 98 92 88 93 88 77 63 70 91 100 100 98 100 97 94 94 96
64 86 79 81 79 76 77 80 83 80 80 79 75 78 80 74 83 92 91 93 79 78 90 71 85 100 100 100 91 94 84 76 62 60 100 100 100 96 97 89 94 82 78
59 76 89 84 83 87 85 84 88 86 88 88 83 84 84 82 81 81 92 95 88 94 79 70 77 81 88 100 100 96 82 78 62 80 98 100 100 94 96 89 95 86 75
68 85 97 90 85 85 87 94 92 90 94 93 94 94 94 90 88 87 88 81 99 98 86 73 68 70 96 95 99 87 90 81 62 94 100 100 100 93 95 90 90 80 75
Wind_Speed
42 35 30 23 17 19 40 45 44 39 43 39 35 34 33 29 26 25 29 27 22 17 17 19 10 17 26 25 26 29 30 28 14 23 18 22 27 31 37 40 37 34 34
42 40 29 22 22 40 43 42 41 34 41 39 44 42 36 35 33 34 32 29 27 27 26 23 23 21 17 16 15 23 28 28 24 16 29 27 31 34 35 41 40 37 37
38 35 33 34 40 45 44 44 43 38 44 47 45 43 42 42 40 38 37 32 32 32 30 29 30 28 29 27 24 24 23 21 26 20 23 23 33 31 30 34 37 36 36
30 34 38 41 41 42 43 45 48 38 42 48 48 47 45 44 38 35 36 34 33 32 31 26 29 33 32 30 25 27 28 30 16 20 21 21 23 26 31 24 23 30 35
33 37 38 38 35 40 39 39 40 41 41 43 49 41 42 41 37 28 30 31 29 30 33 28 28 29 30 31 27 28 26 26 22 16 14 22 21 11 21 19 27 28 31
33 32 32 33 36 36 37 38 39 40 38 36 33 33 36 38 34 35 29 26 27 33 32 33 29 33 34 35 32 26 22 22 18 15 11 15 17 17 25 27 27 18 7
27 30 29 29 33 33 32 35 36 36 35 35 33 34 39 41 41 35 36 31 31 33 32 31 31 34 40 38 38 30 22 21 23 19 19 16 19 18 30 21 28 26 29
26 28 29 29 30 29 31 34 33 30 29 32 32 34 33 39 39 34 31 34 30 29 30 30 33 33 38 40 32 31 31 31 29 22 14 19 18 21 21 23 30 31 31
25 24 28 30 29 30 31 29 29 28 29 30 31 32 34 37 40 39 33 29 30 28 27 30 32 31 34 36 32 30 29 32 32 25 22 17 18 19 21 22 18 17 5
29 21 25 30 32 35 34 31 29 30 30 30 32 38 35 37 37 37 35 32 30 27 26 29 33 34 32 32 31 29 28 31 34 36 33 29 26 23 23 19 18 10 9
22 28 21 24 30 34 35 35 31 30 32 31 31 30 35 32 34 33 30 29 27 23 26 28 31 30 30 29 30 31 28 28 30 29 28 30 31 31 28 24 17 13 10
25 26 28 22 24 23 31 28 30 27 28 29 30 29 32 36 32 36 33 30 31 31 26 24 27 26 26 26 28 29 30 29 28 26 26 26 26 26 29 25 18 14 9
23 26 26 27 25 25 28 32 30 27 25 25 27 29 31 36 37 39 37 30 28 28 24 23 25 24 24 30 27 30 34 31 28 27 25 24 28 28 26 25 22 13 11
20 23 21 23 24 23 22 24 26 26 24 22 23 26 26 26 25 28 30 27 26 27 26 27 28 28 27 29 33 32 30 31 28 24 25 28 29 30 26 26 20 25 10
17 21 22 22 22 23 22 21 23 18 18 17 21 25 23 25 26 26 28 27 27 25 23 27 29 30 29 29 30 31 29 31 30 28 26 26 26 26 27 26 23 20 13
19 15 18 18 20 20 21 21 20 19 16 13 15 22 26 27 25 26 27 27 26 25 26 24 24 25 24 26 27 28 27 29 31 29 26 27 22 24 24 25 23 20 16
13 14 16 18 19 20 20 21 21 19 17 16 15 18 23 25 22 22 23 24 23 24 22 21 20 23 23 23 25 25 27 27 28 30 26 26 27 22 23 21 22 19 17
8 14 12 14 15 15 15 17 17 18 19 20 16 19 21 24 21 21 20 23 23 24 21 21 21 22 23 23 24 25 26 26 28 29 29 29 26 25 20 21 19 18 16
8 11 12 13 13 13 13 14 16 16 16 17 17 20 22 22 17 18 16 21 22 22 22 21 21 20 24 26 24 25 24 25 26 26 28 28 29 24 22 20 21 17 16
9 9 11 12 12 10 15 15 16 16 17 17 17 18 22 23 21 21 18 18 18 18 18 19 21 19 23 26 23 25 24 27 28 27 27 29 30 26 21 20 20 19 16
8 8 10 12 9 11 14 15 13 16 16 15 17 18 18 17 16 18 17 16 15 16 16 16 18 17 21 24 23 26 26 27 26 24 23 27 27 25 26 19 21 20 19
7 8 9 10 10 10 13 12 14 16 15 15 16 18 18 17 16 16 16 15 14 15 14 16 17 17 18 20 22 23 27 27 26 25 23 25 25 24 26 20 19 20 19
5 7 9 9 10 11 12 12 15 14 16 17 17 18 17 19 18 16 16 14 14 14 12 15 19 18 15 17 22 19 24 26 25 22 22 24 23 24 21 20 18 19 20
8 8 10 10 11 13 14 15 15 16 16 17 18 18 17 19 18 17 17 16 15 17 12 17 15 16 16 17 19 18 23 24 22 19 18 21 20 20 19 18 16 18 17
11 10 11 13 14 14 16 17 17 19 19 20 21 19 19 19 18 18 18 16 17 16 14 16 16 17 17 18 15 18 24 23 21 14 15 15 17 16 15 17 16 13 16
8 11 14 15 14 15 16 16 18 19 20 21 22 21 21 19 18 18 17 18 18 13 15 17 20 17 14 16 15 22 22 25 19 11 12 12 14 14 15 14 13 13 13
Wind_Direction
5 11 13 7 24 51 61 61 60 56 62 62 67 61 53 54 52 45 44 37 32 21 12 19 344 290 260 256 254 249 241 228 235 255 260 282 253 245 237 231 232 239 240
10 15 13 20 36 53 57 63 61 57 63 59 57 64 49 58 49 50 49 43 31 28 19 14 11 5 10 -0 314 237 239 234 230 242 259 255 251 250 239 230 227 233 240
16 14 20 28 38 48 48 53 56 51 54 57 55 49 45 43 45 46 52 50 46 41 38 31 21 13 10 358 352 334 331 260 244 253 269 254 242 233 224 230 231 234 241
22 24 26 31 34 46 49 50 53 46 49 54 51 46 41 40 41 44 50 51 49 45 41 38 27 22 15 6 6 352 343 332 308 250 248 243 248 228 224 219 233 234 234
24 29 30 34 37 46 51 54 56 53 52 48 51 46 44 40 37 45 45 43 44 42 36 31 30 17 20 14 11 4 359 340 323 308 297 250 244 217 211 218 236 225 227
29 29 29 33 38 41 46 49 51 50 52 57 55 51 49 40 37 46 48 44 37 40 31 18 23 17 9 19 21 24 27 5 337 326 331 315 309 264 248 224 223 219 231
36 34 34 39 45 43 47 51 51 51 50 52 50 44 44 38 34 38 43 40 36 34 30 18 15 16 12 5 18 17 21 4 10 9 331 343 316 316 317 303 225 224 229
40 40 38 40 44 44 47 49 50 52 53 51 50 47 44 39 34 34 36 37 34 31 26 21 16 13 13 11 6 4 9 8 9 0 351 333 338 327 319 305 292 252 231
41 44 44 44 45 44 44 46 48 50 49 50 49 45 41 37 31 30 31 29 29 25 22 21 16 12 13 13 9 3 2 0 7 4 13 2 354 352 345 329 321 322 231
43 50 52 51 50 48 46 43 43 45 46 45 43 38 37 35 30 29 27 27 21 14 16 14 15 13 11 10 15 9 357 351 356 3 7 9 10 4 2 359 345 337 326
50 51 60 50 49 46 48 49 49 45 48 46 45 38 33 32 28 25 27 26 17 9 9 10 11 7 9 9 10 12 1 353 357 358 357 1 3 4 4 357 354 346 335
53 49 50 57 56 51 48 48 49 46 44 40 36 31 26 25 24 20 21 22 16 17 9 8 8 6 7 11 10 7 9 6 0 359 0 359 355 351 351 354 344 342 342
45 49 43 45 44 44 41 42 42 43 44 40 35 29 20 20 20 16 17 15 12 15 13 9 10 11 10 14 9 9 14 9 3 3 358 351 348 352 355 352 355 338 343
48 44 42 44 43 41 50 44 44 43 48 47 41 35 27 18 16 17 13 11 10 12 12 13 14 14 14 11 10 11 7 5 2 353 354 351 354 357 354 357 350 2 4
49 41 39 38 38 39 40 35 36 41 45 52 49 40 25 16 10 12 13 12 13 12 16 18 15 12 8 5 3 3 2 2 -0 355 352 353 356 354 355 2 4 3 7
38 39 38 37 35 34 31 31 34 32 26 41 40 29 20 14 9 10 12 13 12 14 21 15 15 11 6 2 358 355 358 357 356 354 355 356 350 359 355 358 2 2 2
42 37 38 35 27 26 26 23 18 21 23 24 22 20 19 13 11 10 11 12 17 16 19 14 8 11 7 1 357 354 351 353 354 357 351 351 356 356 355 356 358 358 357
45 31 37 34 27 29 25 21 18 15 16 17 18 10 15 11 9 8 8 12 18 20 18 11 7 9 5 358 356 354 352 353 354 354 353 355 348 353 353 356 359 356 355
40 34 29 27 27 26 23 12 15 16 15 11 12 5 9 11 12 12 12 17 18 15 11 8 5 4 1 356 355 354 354 352 352 352 352 350 351 348 354 353 355 358 2
37 24 22 21 18 19 7 10 14 11 10 12 10 9 1 360 9 7 6 6 11 10 6 3 2 1 359 358 355 352 352 351 350 350 351 353 360 349 349 358 2 4 349
42 15 18 12 15 7 9 8 11 4 4 2 0 358 355 358 357 357 358 354 357 359 358 355 354 350 349 352 352 351 348 347 351 350 351 354 1 350 353 1 2 2 2
29 15 1 357 353 357 355 358 355 355 355 352 350 351 352 353 348 348 349 349 345 347 348 348 347 337 341 349 349 348 353 351 351 351 350 353 360 356 353 357 3 5 3
20 354 337 337 341 343 348 342 345 345 342 343 343 343 343 344 342 340 341 343 343 343 337 343 341 334 334 342 346 343 351 350 346 347 347 349 357 1 357 360 5 6 7
337 325 322 328 328 332 334 333 332 330 328 327 328 327 329 332 333 334 331 330 333 333 327 340 341 347 337 334 339 341 347 346 342 341 351 357 3 358 359 7 5 5 10
305 305 320 319 323 325 325 325 321 321 320 317 319 315 317 321 320 323 324 323 322 321 324 335 332 332 331 334 322 340 347 346 341 340 346 355 2 358 7 15 9 13 16
309 312 313 312 314 315 320 322 323 323 319 319 315 309 308 308 311 315 315 317 313 304 319 327 330 329 330 334 326 334 338 339 340 344 353 354 360 357 1 12 18 19 28